Location: Bannatyne
(13.0833°N, 59.5333°W)
Time: 10:32:21
(UTC+00:00)

Explorer 7 - Pass Details

Date: 29 January 2020
Orbit: 485 x 679 km, 50.3° (Epoch: 20 February)

Event Time Altitude Azimuth Distance (km) Brightness Sun altitude
Exits shadow 10:29:15 - 287° (WNW) 2,722 9.6 0.2°
Rises 10:29:18 0° 287° (WNW) 2,706 9.6 0.2°
Reaches altitude 10° 10:32:56 10° 254° (WSW) 1,865 9.0 1.0°
Maximum altitude 10:34:25 12° 233° (SW) 1,785 9.1 1.4°
Drops below altitude 10° 10:35:55 10° 213° (SSW) 1,908 9.5 1.7°
Sets 10:39:46 0° 180° (S) 2,866 10.7 2.6°
